Rose Spit, British Columbia

7:22 AM PDT on October 23, 2017 (GMT -0700)
Rose Spit

Weather History for CWRO - November, 2012

Change the Weather History Date:

Monday, November 26, 2012

  Actual Average Record
Temperature  
Mean Temperature 42 °F -  
Max Temperature 43 °F - - ()
Min Temperature 42 °F - - ()
Degree Days  
Heating Degree Days 22    
Moisture  
Dew Point 39 °F    
Average Humidity 87    
Maximum Humidity 91    
Minimum Humidity 75    
Precipitation  
Precipitation 0.00 in - - ()
Sea Level Pressure  
Sea Level Pressure 30.13 in    
Wind  
Wind Speed 11 mph ()    
Max Wind Speed 20 mph    
Max Gust Speed -    
T = Trace of Precipitation, MM = Missing Value Source: Averaged Metar Reports

Daily Weather History Graph

Daily Weather History Graph

Search for Another Location

Airport or City:

Trip Planner

Search our weather history database for the weather conditions in past years. The results will help you decide how hot, cold, wet, or windy it might be!

Date:

Astronomy

Nov. 26, 2012 Rise Set
Actual Time 8:36 AM PST 4:31 PM PST
Civil Twilight 7:54 AM PST 5:13 PM PST
Nautical Twilight 7:09 AM PST 5:58 PM PST
Astronomical Twilight 6:26 AM PST 6:41 PM PST
Moon 3:36 PM PST (11/26) 6:43 AM PST (11/26)
Length of Visible Light 9h 19m
Length of Day
7h 55m
Waxing Gibbous, 97% of the Moon is Illuminated
Nov 26
Waxing Gibbous
Nov 28
Full
Dec 6
Last Quarter
Dec 13
New
Dec 19
First Quarter

Hourly Weather History & Observations

Time (PST) Temp. Windchill Dew Point Humidity Pressure Visibility Wind Dir Wind Speed Gust Speed Precip Events Conditions
12:00 AM 42.3 °F 37.3 °F 39.7 °F 91% 30.22 in - SSE 8.1 mph - N/A   Unknown
1:00 AM 42.3 °F 36.8 °F 39.7 °F 91% 30.21 in - SSE 9.2 mph - N/A   Unknown
2:00 AM 42.6 °F 36.3 °F 39.7 °F 90% 30.20 in - SSE 11.5 mph - N/A   Unknown
3:00 AM 42.4 °F 37.0 °F 39.7 °F 90% 30.20 in - SSE 9.2 mph - N/A   Unknown
4:00 AM 43 °F - 40 °F 85% 30.19 in - SSE 10.4 mph - -  
4:00 AM 42.8 °F 37.0 °F 40.1 °F 90% 30.19 in - SSE 10.4 mph - N/A   Unknown
5:00 AM 42.3 °F 36.8 °F 39.6 °F 90% 30.17 in - SSE 9.2 mph - N/A   Unknown
6:00 AM 43.0 °F 35.7 °F 40.3 °F 90% 30.17 in - SE 15.0 mph - N/A   Unknown
7:00 AM 42.8 °F 35.1 °F 40.3 °F 91% 30.15 in - SE 16.1 mph - N/A   Unknown
8:00 AM 42.6 °F 34.9 °F 40.1 °F 91% 30.16 in - SE 16.1 mph - N/A   Unknown
9:00 AM 42.8 °F 36.2 °F 40.3 °F 91% 30.16 in - SE 12.7 mph - N/A   Unknown
10:00 AM 43 °F - 40 °F 87% 30.16 in - SE 11.5 mph - -  
10:00 AM 43.2 °F 37.0 °F 40.5 °F 90% 30.16 in - SE 11.5 mph - N/A   Unknown
11:00 AM 43.7 °F 38.1 °F 40.8 °F 90% 30.17 in - ESE 10.4 mph - N/A   Unknown
12:00 PM 43.9 °F 39.3 °F 40.6 °F 88% 30.16 in - East 8.1 mph - N/A   Unknown
1:00 PM 43.5 °F 37.9 °F 40.1 °F 88% 30.14 in - ENE 10.4 mph - N/A   Unknown
2:00 PM 43.0 °F 36.8 °F 39.2 °F 86% 30.12 in - ENE 11.5 mph - N/A   Unknown
3:00 PM 43.2 °F 35.9 °F 39.4 °F 86% 30.10 in - NE 15.0 mph - N/A   Unknown
4:00 PM 42 °F - 39 °F 83% 30.09 in - NE 16.1 mph - -  
4:00 PM 42.4 °F 34.7 °F 38.7 °F 86% 30.09 in - NE 16.1 mph - N/A   Unknown
5:00 PM 42.3 °F 35.1 °F 38.8 °F 88% 30.08 in - NE 13.8 mph - N/A   Unknown
6:00 PM 42.6 °F 34.0 °F 38.5 °F 85% 30.06 in - NE 19.6 mph - N/A   Unknown
7:00 PM 42.3 °F 33.6 °F 37.4 °F 83% 30.05 in - NE 19.6 mph - N/A   Unknown
8:00 PM 42.3 °F 35.1 °F 37.4 °F 83% 30.04 in - ENE 13.8 mph - N/A   Unknown
9:00 PM 42.4 °F 34.4 °F 37.0 °F 81% 30.03 in - NE 17.3 mph - N/A   Unknown
10:00 PM 43 °F - 38 °F 75% 30.02 in - ENE 19.6 mph - -  
10:00 PM 42.6 °F 34.0 °F 37.8 °F 83% 30.02 in - ENE 19.6 mph - N/A   Unknown
11:00 PM 43.0 °F 35.1 °F 38.5 °F 84% 30.01 in - ENE 17.3 mph - N/A   Unknown